Home   Weather   Balneário Camboriú   Past weeks
Flag for Brazil

Past Weather in Balneário Camboriú, Santa Catarina, Brazil — Yesterday and Last 2 Weeks

Now
64 °F

Clear.


Feels Like: 64 °F
Forecast: 77 / 65 °F
Wind: No wind

Location: Navegantes

Current Time: Apr 5, 2020 at 12:15:16 am

Latest Report: Apr 4, 2020 at 11:00 pm


Visibility: 10 mi

Pressure: 30.01 "Hg

Humidity: 88%

Dew Point: 61 °F

Location of Balneário CamboriúLocation

Past Weather in Balneário Camboriú — Graph

°F

Balneário Camboriú Temperature Yesterday

Maximum temperature yesterday: 79 °F (at 12:00 pm)
Minimum temperature yesterday: 61 °F (at 7:00 am)
Average temperature yesterday: 71 °F

High & Low Weather Summary for the Past Weeks

 TemperatureHumidityPressure
High84 °F (Mar 30, 12:00 pm)100% (Mar 31, 6:10 am)30.18 "Hg (Mar 31, 6:10 am)
Low61 °F (Apr 4, 7:00 am)39% (Apr 3, 3:00 pm)29.68 "Hg (Apr 2, 5:00 pm)
Average76 °F75%29.99 "Hg
* Reported Mar 20 10:00 pm — Apr 4 10:00 pm, Balneário Camboriú. Weather by CustomWeather, © 2020

Note: Actual official high and low records may vary slightly from our data, if they occured in-between our weather recording intervals... More about our weather records

Balneário Camboriú Weather History for the Previous 24 Hours

Scroll right to see more
 ConditionsComfort  
Time TempWeatherWind HumidityBarometerVisibility
10:00 pm
Sat, Apr 4
68 °FClear.No wind78%30.01 "Hg10 mi
9:00 pm72 °FClear.5 mph73%29.98 "Hg10 mi
8:00 pm72 °FClear.8 mph78%29.98 "Hg10 mi
7:00 pm73 °FClear.9 mph69%29.95 "Hg10 mi
6:00 pm73 °FSunny.7 mph69%29.92 "Hg10 mi
5:00 pm75 °FSunny.8 mph61%29.89 "Hg10 mi
3:00 pm77 °FSunny.9 mph54%29.89 "Hg10 mi
2:00 pm77 °FSunny.9 mph54%29.89 "Hg10 mi
1:00 pm77 °FSunny.8 mph51%29.92 "Hg10 mi
12:00 pm79 °FSunny.13 mph45%29.95 "Hg10 mi
11:00 am75 °FSunny.10 mph50%29.95 "Hg10 mi
10:00 am72 °FSunny.13 mph57%29.95 "Hg10 mi
9:00 am68 °FSunny.16 mph64%29.95 "Hg10 mi
8:00 am64 °FSunny.14 mph78%29.92 "Hg10 mi
7:00 am61 °FSunny.9 mph83%29.89 "Hg10 mi
6:10 am63 °FClear.14 mph77%29.89 "Hg10 mi
12:00 am64 °FPassing clouds.10 mph73%29.86 "HgN/A
Weather by CustomWeather, © 2020

See weather overview

Advertising